EN

Hourly Weather La Gloria

Today, 31 July, Saturday

Time Temperature Precipitation Wind Pressure Humidity
00:00 +26°C° 0.4 mm 1 mps 755 mmHg 93%
01:00 +26°C° 0.4 mm 1 mps 755 mmHg 94%
02:00 +26°C° 0.4 mm 1 mps 755 mmHg 95%
03:00 +26°C° 0.4 mm 1 mps 755 mmHg 96%
04:00 +26°C° 0.4 mm 2 mps 755 mmHg 96%
05:00 +26°C° 0 mm 2 mps 756 mmHg 95%
06:00 +26°C° 0 mm 2 mps 756 mmHg 94%
07:00 +26°C° 0 mm 2 mps 757 mmHg 93%
08:00 +28°C° 0 mm 2 mps 756 mmHg 82%
09:00 +30°C° 0 mm 2 mps 756 mmHg 71%
10:00 +34°C° 0 mm 3 mps 756 mmHg 60%
11:00 +35°C° 0 mm 3 mps 755 mmHg 54%
12:00 +36°C° 0 mm 2 mps 754 mmHg 49%
13:00 +38°C° 0 mm 2 mps 753 mmHg 44%
14:00 +38°C° 0 mm 2 mps 753 mmHg 44%
15:00 +38°C° 0 mm 2 mps 752 mmHg 44%
16:00 +37°C° 0 mm 1 mps 751 mmHg 44%
17:00 +35°C° 0.2 mm 1 mps 752 mmHg 53%
18:00 +32°C° 0.2 mm 1 mps 752 mmHg 63%
19:00 +30°C° 0.2 mm 1 mps 753 mmHg 72%
20:00 +29°C° 0.7 mm 1 mps 753 mmHg 77%
21:00 +28°C° 0.7 mm 1 mps 754 mmHg 82%
22:00 +27°C° 0.7 mm 1 mps 755 mmHg 86%
23:00 +27°C° 0.6 mm 1 mps 754 mmHg 88%

Tomorrow, 1 August, Sunday

Time Temperature Precipitation Wind Pressure Humidity
00:00 +27°C° 0.6 mm 1 mps 754 mmHg 90%
01:00 +27°C° 0.6 mm 1 mps 754 mmHg 91%
02:00 +27°C° 0 mm 1 mps 754 mmHg 91%
03:00 +27°C° 0 mm 1 mps 754 mmHg 91%
04:00 +26°C° 0 mm 1 mps 754 mmHg 91%
05:00 +27°C° 0 mm 1 mps 755 mmHg 90%
06:00 +27°C° 0 mm 1 mps 755 mmHg 89%
07:00 +27°C° 0 mm 1 mps 755 mmHg 88%
08:00 +30°C° 0 mm 1 mps 755 mmHg 77%
09:00 +32°C° 0 mm 1 mps 755 mmHg 65%
10:00 +35°C° 0 mm 2 mps 755 mmHg 54%
11:00 +37°C° 0 mm 2 mps 754 mmHg 50%
12:00 +38°C° 0 mm 2 mps 754 mmHg 46%
13:00 +39°C° 0 mm 2 mps 753 mmHg 42%
14:00 +39°C° 0 mm 2 mps 753 mmHg 43%
15:00 +39°C° 0 mm 1 mps 752 mmHg 43%
16:00 +39°C° 0 mm 1 mps 752 mmHg 43%
17:00 +35°C° 0.3 mm 1 mps 752 mmHg 54%
18:00 +33°C° 0.3 mm 1 mps 753 mmHg 65%
19:00 +30°C° 0.3 mm 1 mps 753 mmHg 76%
20:00 +29°C° 2.5 mm 1 mps 754 mmHg 82%
21:00 +28°C° 2.5 mm 1 mps 755 mmHg 88%
22:00 +27°C° 2.5 mm 1 mps 755 mmHg 94%
23:00 +26°C° 2.8 mm 1 mps 755 mmHg 95%

Day after tomorrow, 2 August, Monday

Time Temperature Precipitation Wind Pressure Humidity
00:00 +26°C° 2.8 mm 1 mps 755 mmHg 96%
01:00 +26°C° 2.8 mm 1 mps 755 mmHg 97%
02:00 +24°C° 1.1 mm 0 mps 756 mmHg 97%
03:00 +24°C° 1.1 mm 0 mps 756 mmHg 98%
04:00 +24°C° 1.1 mm 0 mps 756 mmHg 98%
05:00 +24°C° 0.2 mm 0 mps 756 mmHg 97%
06:00 +24°C° 0.2 mm 0 mps 756 mmHg 97%
07:00 +24°C° 0.2 mm 0 mps 757 mmHg 97%
08:00 +25°C° 0 mm 0 mps 757 mmHg 92%
09:00 +26°C° 0 mm 0 mps 757 mmHg 87%
10:00 +27°C° 0 mm 0 mps 757 mmHg 82%
11:00 +28°C° 0.1 mm 0 mps 756 mmHg 75%
12:00 +30°C° 0.1 mm 0 mps 756 mmHg 67%
13:00 +32°C° 0.1 mm 0 mps 755 mmHg 60%
14:00 +31°C° 0.1 mm 0 mps 754 mmHg 60%
15:00 +33°C° 0.1 mm 1 mps 754 mmHg 61%
16:00 +33°C° 0.1 mm 1 mps 753 mmHg 61%
17:00 +31°C° 0.2 mm 1 mps 754 mmHg 70%
18:00 +30°C° 0.2 mm 1 mps 754 mmHg 79%
19:00 +28°C° 0.2 mm 1 mps 755 mmHg 88%
20:00 +27°C° 1 mm 1 mps 756 mmHg 90%
21:00 +26°C° 1 mm 1 mps 756 mmHg 93%
22:00 +26°C° 1 mm 1 mps 757 mmHg 96%
23:00 +26°C° 0.5 mm 1 mps 757 mmHg 96%

3 August, Tuesday

Time Temperature Precipitation Wind Pressure Humidity
00:00 +26°C° 0.5 mm 1 mps 756 mmHg 96%
01:00 +26°C° 0.5 mm 1 mps 756 mmHg 96%
02:00 +26°C° 0.5 mm 1 mps 756 mmHg 95%
03:00 +25°C° 0.5 mm 1 mps 756 mmHg 95%
04:00 +25°C° 0.5 mm 1 mps 756 mmHg 95%
05:00 +26°C° 0.3 mm 1 mps 756 mmHg 94%
06:00 +24°C° 0.3 mm 0 mps 756 mmHg 93%
07:00 +24°C° 0.3 mm 0 mps 757 mmHg 92%
08:00 +28°C° 0 mm 1 mps 757 mmHg 82%
09:00 +31°C° 0 mm 1 mps 757 mmHg 72%
10:00 +33°C° 0 mm 1 mps 757 mmHg 62%
11:00 +34°C° 0.1 mm 1 mps 756 mmHg 57%
12:00 +35°C° 0.1 mm 1 mps 755 mmHg 53%
13:00 +36°C° 0.1 mm 1 mps 755 mmHg 48%
14:00 +36°C° 0.1 mm 1 mps 754 mmHg 49%
15:00 +36°C° 0.1 mm 1 mps 753 mmHg 50%
16:00 +36°C° 0.1 mm 1 mps 753 mmHg 51%
17:00 +33°C° 0.2 mm 1 mps 753 mmHg 60%
18:00 +31°C° 0.2 mm 1 mps 754 mmHg 69%
19:00 +29°C° 0.2 mm 1 mps 754 mmHg 78%
20:00 +28°C° 2 mm 1 mps 755 mmHg 83%
21:00 +27°C° 2 mm 1 mps 756 mmHg 88%
22:00 +26°C° 2 mm 1 mps 756 mmHg 93%
23:00 +26°C° 1.2 mm 1 mps 756 mmHg 94%

4 August, Wednesday

Time Temperature Precipitation Wind Pressure Humidity
00:00 +26°C° 1.2 mm 1 mps 756 mmHg 95%
01:00 +26°C° 1.2 mm 1 mps 756 mmHg 96%
02:00 +26°C° 0.4 mm 1 mps 756 mmHg 96%
03:00 +25°C° 0.4 mm 1 mps 756 mmHg 96%
04:00 +25°C° 0.4 mm 1 mps 756 mmHg 97%
05:00 +24°C° 0.1 mm 0 mps 756 mmHg 95%
06:00 +24°C° 0.1 mm 0 mps 756 mmHg 94%
07:00 +24°C° 0.1 mm 0 mps 757 mmHg 92%
08:00 +26°C° 0 mm 0 mps 757 mmHg 82%
09:00 +31°C° 0 mm 1 mps 757 mmHg 72%
10:00 +33°C° 0 mm 1 mps 757 mmHg 62%
11:00 +34°C° 0 mm 1 mps 756 mmHg 57%
12:00 +35°C° 0 mm 1 mps 756 mmHg 52%
13:00 +36°C° 0 mm 1 mps 755 mmHg 47%
14:00 +36°C° 0.1 mm 1 mps 754 mmHg 48%
15:00 +36°C° 0.1 mm 1 mps 754 mmHg 48%
16:00 +36°C° 0.1 mm 1 mps 753 mmHg 49%
17:00 +34°C° 0.1 mm 1 mps 754 mmHg 57%
18:00 +32°C° 0.1 mm 1 mps 754 mmHg 66%
19:00 +30°C° 0.1 mm 1 mps 754 mmHg 75%
20:00 +29°C° 0.5 mm 1 mps 755 mmHg 79%
21:00 +28°C° 0.5 mm 1 mps 755 mmHg 83%
22:00 +27°C° 0.5 mm 1 mps 756 mmHg 87%
23:00 +27°C° 0.6 mm 1 mps 756 mmHg 89%

5 August, Thursday

Time Temperature Precipitation Wind Pressure Humidity
00:00 +26°C° 0.6 mm 1 mps 756 mmHg 91%
01:00 +24°C° 0.6 mm 0 mps 755 mmHg 93%
02:00 +26°C° 0.9 mm 1 mps 756 mmHg 94%
03:00 +25°C° 0.9 mm 1 mps 756 mmHg 95%
04:00 +25°C° 0.9 mm 1 mps 756 mmHg 96%
05:00 +25°C° 0 mm 1 mps 756 mmHg 94%
06:00 +26°C° 0 mm 1 mps 757 mmHg 93%
07:00 +26°C° 0 mm 1 mps 757 mmHg 92%
08:00 +28°C° 0 mm 1 mps 757 mmHg 80%
09:00 +31°C° 0 mm 2 mps 757 mmHg 69%
10:00 +34°C° 0 mm 2 mps 757 mmHg 58%
11:00 +35°C° 0 mm 2 mps 756 mmHg 54%
12:00 +36°C° 0 mm 2 mps 755 mmHg 50%
13:00 +37°C° 0 mm 2 mps 755 mmHg 46%
14:00 +36°C° 0.1 mm 1 mps 754 mmHg 46%
15:00 +36°C° 0.1 mm 1 mps 754 mmHg 46%
16:00 +34°C° 0.1 mm 0 mps 753 mmHg 46%
17:00 +32°C° 0.1 mm 0 mps 754 mmHg 55%
18:00 +32°C° 0.1 mm 1 mps 754 mmHg 64%
19:00 +30°C° 0.1 mm 1 mps 755 mmHg 74%
20:00 +29°C° 1.3 mm 1 mps 755 mmHg 80%
21:00 +28°C° 1.3 mm 1 mps 756 mmHg 86%
22:00 +27°C° 1.3 mm 1 mps 756 mmHg 93%
23:00 +26°C° 2 mm 1 mps 756 mmHg 93%
Show more